Year,Month,Day,Hour,Minute,Value (Times are PST for temperature in C)
2011,01,16,00,00,7.70
2011,01,16,00,01,7.70
2011,01,16,00,02,7.70
2011,01,16,00,03,7.70
2011,01,16,00,04,7.70
2011,01,16,00,05,7.70
2011,01,16,00,06,7.70
2011,01,16,00,07,7.70
2011,01,16,00,08,7.70
2011,01,16,00,09,7.70
2011,01,16,00,10,7.70
2011,01,16,00,11,7.70
2011,01,16,00,12,7.70
2011,01,16,00,13,7.70
2011,01,16,00,14,7.70
2011,01,16,00,15,7.70
2011,01,16,00,16,7.70
2011,01,16,00,17,7.70
2011,01,16,00,18,7.70
2011,01,16,00,19,7.70
2011,01,16,00,20,7.80
2011,01,16,00,21,7.70
2011,01,16,00,22,7.80
2011,01,16,00,23,7.80
2011,01,16,00,24,7.80
2011,01,16,00,25,7.80
2011,01,16,00,26,7.80
2011,01,16,00,27,7.80
2011,01,16,00,28,7.80
2011,01,16,00,29,7.80
2011,01,16,00,30,7.80
2011,01,16,00,31,7.80
2011,01,16,00,32,7.80
2011,01,16,00,33,7.80
2011,01,16,00,34,7.90
2011,01,16,00,35,7.90
2011,01,16,00,36,7.90
2011,01,16,00,37,7.90
2011,01,16,00,38,7.90
2011,01,16,00,39,7.90
2011,01,16,00,40,7.90
2011,01,16,00,41,7.90
2011,01,16,00,42,7.90
2011,01,16,00,43,7.90
2011,01,16,00,44,7.90
2011,01,16,00,45,7.90
2011,01,16,00,46,7.90
2011,01,16,00,47,7.90
2011,01,16,00,48,7.90
2011,01,16,00,49,7.80
2011,01,16,00,50,7.80
2011,01,16,00,51,7.80
2011,01,16,00,52,7.80
2011,01,16,00,53,7.80
2011,01,16,00,54,7.70
2011,01,16,00,55,7.70
2011,01,16,00,56,7.70
2011,01,16,00,57,7.70
2011,01,16,00,58,7.70
2011,01,16,00,59,7.70
2011,01,16,01,00,7.70
2011,01,16,01,01,7.70
2011,01,16,01,02,7.70
2011,01,16,01,03,7.70
2011,01,16,01,04,7.70
2011,01,16,01,05,7.70
2011,01,16,01,06,7.70
2011,01,16,01,07,7.70
2011,01,16,01,08,7.70
2011,01,16,01,09,7.70
2011,01,16,01,10,7.70
2011,01,16,01,11,7.70
2011,01,16,01,12,7.70
2011,01,16,01,13,7.70
2011,01,16,01,14,7.70
2011,01,16,01,15,7.70
2011,01,16,01,16,7.70
2011,01,16,01,17,7.70
2011,01,16,01,18,7.70
2011,01,16,01,19,7.70
2011,01,16,12,09,11.30
2011,01,16,14,18,10.80
2011,01,16,14,44,10.80
2011,01,16,14,46,10.80
2011,01,16,14,47,10.80
2011,01,16,15,12,10.60
2011,01,16,15,13,10.60
2011,01,16,15,14,10.60
2011,01,16,15,18,10.50
2011,01,16,15,19,10.40
2011,01,16,15,21,10.40
2011,01,16,15,22,10.40
2011,01,16,15,23,10.40
2011,01,16,15,24,10.40
2011,01,16,15,25,10.40
2011,01,16,15,26,10.40
2011,01,16,15,27,10.40
2011,01,16,15,28,10.40
2011,01,16,15,29,10.40
2011,01,16,15,30,10.30
2011,01,16,15,31,10.30
2011,01,16,15,32,10.30
2011,01,16,15,33,10.30
2011,01,16,15,34,10.30
2011,01,16,15,35,10.30
2011,01,16,15,36,10.30
2011,01,16,15,37,10.20
2011,01,16,15,38,10.20
2011,01,16,15,39,10.20
2011,01,16,15,40,10.30
2011,01,16,15,41,10.20
2011,01,16,15,42,10.20
2011,01,16,15,43,10.20
2011,01,16,15,44,10.20
2011,01,16,15,45,10.20
2011,01,16,15,46,10.20
2011,01,16,15,47,10.20
2011,01,16,15,48,10.20
2011,01,16,15,49,10.20
2011,01,16,15,50,10.20
2011,01,16,15,51,10.20
2011,01,16,15,52,10.20
2011,01,16,15,53,10.20
2011,01,16,15,54,10.20
2011,01,16,15,55,10.20
2011,01,16,15,56,10.20
2011,01,16,15,57,10.20
2011,01,16,15,58,10.20
2011,01,16,15,59,10.20
2011,01,16,16,01,10.30
2011,01,16,16,02,10.30
2011,01,16,16,03,10.30
2011,01,16,16,34,10.60
2011,01,16,16,36,10.60
2011,01,16,16,38,10.60
2011,01,16,16,40,10.50
2011,01,16,16,44,10.50
2011,01,16,16,45,10.50
2011,01,16,16,46,10.50
2011,01,16,16,47,10.50
2011,01,16,16,48,10.50
2011,01,16,16,49,10.50
2011,01,16,16,50,10.60
2011,01,16,16,51,10.60
2011,01,16,17,04,10.60
2011,01,16,17,05,10.60
2011,01,16,17,06,10.60
2011,01,16,17,07,10.60
2011,01,16,17,08,10.60
2011,01,16,17,10,10.60
2011,01,16,17,13,10.60
2011,01,16,17,14,10.60
2011,01,16,17,15,10.60
2011,01,16,17,27,10.60
2011,01,16,17,29,10.60
2011,01,16,23,59,9.30
